IMATT LIMJ-LSZA

Flight info

Callsign IMATT
Flight time N/A
Altitude 4000
Route LIML AUTODROMO DI MONZA BRIOSCO CANTU COMO MELIDE
Aircraft SR22/L-SDGRY/S

Departure

Time N/A
Airport Genoa Cristoforo Colombo Airport (LIMJ)

Arrival

Time 2026-04-11 13:06
Airport Lugano Airport (LSZA)
Time Latitude Longitude Altitude Speed Heading
2026-04-11 12:31 44.94074 9.05745 4038 ft 182 kts 19°
2026-04-11 12:31 44.95264 9.06343 4047 ft 182 kts 19°
2026-04-11 12:31 44.96453 9.06943 4043 ft 181 kts 19°
2026-04-11 12:32 44.97626 9.07532 4044 ft 181 kts 19°
2026-04-11 12:32 44.98815 9.08130 4044 ft 181 kts 19°
2026-04-11 12:32 45.00004 9.08727 4044 ft 181 kts 19°
2026-04-11 12:32 45.01192 9.09322 4044 ft 181 kts 19°
2026-04-11 12:33 45.02380 9.09920 4046 ft 181 kts 19°
2026-04-11 12:33 45.03586 9.10434 4045 ft 181 kts 13°
2026-04-11 12:33 45.04817 9.10844 4047 ft 182 kts 14°
2026-04-11 12:33 45.06033 9.11338 4038 ft 182 kts 17°
2026-04-11 12:34 45.07247 9.11854 4048 ft 182 kts 17°
2026-04-11 12:34 45.08461 9.12369 4046 ft 182 kts 16°
2026-04-11 12:34 45.09677 9.12880 4042 ft 182 kts 16°
2026-04-11 12:34 45.10893 9.13390 4048 ft 182 kts 17°
2026-04-11 12:35 45.12107 9.13902 4045 ft 182 kts 17°
2026-04-11 12:35 45.13319 9.14414 4044 ft 182 kts 17°
2026-04-11 12:35 45.14532 9.14924 4047 ft 182 kts 17°
2026-04-11 12:35 45.15749 9.15440 4041 ft 183 kts 17°
2026-04-11 12:36 45.16964 9.15955 4048 ft 182 kts 17°
2026-04-11 12:36 45.18181 9.16470 4050 ft 182 kts 17°
2026-04-11 12:36 45.19399 9.16982 4048 ft 183 kts 17°
2026-04-11 12:36 45.20618 9.17497 4049 ft 183 kts 17°
2026-04-11 12:37 45.21822 9.18004 4048 ft 182 kts 17°
2026-04-11 12:37 45.23036 9.18520 4048 ft 182 kts 17°
2026-04-11 12:37 45.24253 9.19038 4042 ft 183 kts 17°
2026-04-11 12:37 45.25476 9.19554 4049 ft 184 kts 17°
2026-04-11 12:38 45.26678 9.20064 4043 ft 180 kts 17°
2026-04-11 12:38 45.27494 9.20408 4051 ft 182 kts 16°
2026-04-11 12:38 45.29107 9.21093 4055 ft 183 kts 17°
2026-04-11 12:38 45.29919 9.21441 4044 ft 184 kts 17°
2026-04-11 12:39 45.31148 9.21961 4055 ft 184 kts 17°
2026-04-11 12:39 45.32378 9.22488 4050 ft 185 kts 17°
2026-04-11 12:39 45.33608 9.23002 4047 ft 184 kts 17°
2026-04-11 12:39 45.34831 9.23521 4048 ft 183 kts 17°
2026-04-11 12:40 45.36048 9.24039 4050 ft 183 kts 17°
2026-04-11 12:40 45.37222 9.24567 3976 ft 165 kts 22°
2026-04-11 12:40 45.38191 9.25389 3572 ft 156 kts 35°
2026-04-11 12:40 45.38865 9.26282 3167 ft 116 kts 54°
2026-04-11 12:41 45.39317 9.27154 2789 ft 104 kts 55°
2026-04-11 12:41 45.39914 9.27712 2330 ft 112 kts 18°
2026-04-11 12:41 45.40694 9.27890 1533 ft 125 kts 359°
2026-04-11 12:41 45.41528 9.27903 1014 ft 117 kts 357°
2026-04-11 12:42 45.42291 9.27888 626 ft 102 kts
2026-04-11 12:42 45.42942 9.27868 463 ft 85 kts 353°
2026-04-11 12:42 45.43496 9.27802 378 ft 78 kts 354°
2026-04-11 12:43 45.44682 9.27671 398 ft 111 kts 354°
2026-04-11 12:43 45.45456 9.27543 839 ft 110 kts 358°
2026-04-11 12:43 45.46224 9.27490 1301 ft 114 kts 12°
2026-04-11 12:43 45.46692 9.28267 1594 ft 123 kts 103°
2026-04-11 12:44 45.45957 9.28968 1776 ft 132 kts 156°
2026-04-11 12:44 45.45097 9.29449 2139 ft 131 kts 156°
2026-04-11 12:44 45.44289 9.29986 2679 ft 132 kts 143°
2026-04-11 12:44 45.43542 9.30893 2824 ft 146 kts 141°
2026-04-11 12:45 45.42707 9.31802 2997 ft 155 kts 134°
2026-04-11 12:45 45.42040 9.32992 3234 ft 159 kts 126°
2026-04-11 12:45 45.41556 9.34413 3445 ft 162 kts 103°
2026-04-11 12:45 45.41304 9.35988 3655 ft 164 kts 103°
2026-04-11 12:46 45.41008 9.37555 3846 ft 164 kts 104°
2026-04-11 12:46 45.40723 9.39119 4041 ft 167 kts 104°
2026-04-11 12:46 45.40430 9.40744 4060 ft 172 kts 104°
2026-04-11 12:46 45.40126 9.42428 4060 ft 179 kts 104°
2026-04-11 12:47 45.39815 9.44149 4048 ft 180 kts 104°
2026-04-11 12:47 45.39504 9.45861 4043 ft 178 kts 105°
2026-04-11 12:47 45.39487 9.47606 4035 ft 182 kts 72°
2026-04-11 12:47 45.40288 9.48946 4074 ft 182 kts 30°
2026-04-11 12:48 45.41533 9.49207 4084 ft 185 kts 354°
2026-04-11 12:48 45.42811 9.48917 4087 ft 188 kts 352°
2026-04-11 12:48 45.44093 9.48558 4098 ft 188 kts 340°
2026-04-11 12:48 45.45242 9.47675 4101 ft 188 kts 330°
2026-04-11 12:49 45.46354 9.46750 4132 ft 189 kts 332°
2026-04-11 12:49 45.47507 9.45784 4097 ft 191 kts 330°
2026-04-11 12:49 45.48652 9.44840 4117 ft 190 kts 330°
2026-04-11 12:49 45.49806 9.43892 4106 ft 192 kts 330°
2026-04-11 12:50 45.50906 9.42843 4104 ft 189 kts 323°
2026-04-11 12:50 45.51964 9.41723 4102 ft 190 kts 323°
2026-04-11 12:50 45.53027 9.40604 4109 ft 189 kts 323°
2026-04-11 12:50 45.54081 9.39469 4113 ft 190 kts 323°
2026-04-11 12:51 45.55144 9.38335 4101 ft 190 kts 323°
2026-04-11 12:51 45.56197 9.37205 4107 ft 188 kts 323°
2026-04-11 12:51 45.57254 9.36082 4102 ft 190 kts 323°
2026-04-11 12:51 45.58306 9.34963 4097 ft 188 kts 323°
2026-04-11 12:52 45.59353 9.33844 4096 ft 188 kts 323°
2026-04-11 12:52 45.60399 9.32736 4091 ft 186 kts 323°
2026-04-11 12:52 45.61436 9.31629 4084 ft 187 kts 323°
2026-04-11 12:52 45.62396 9.30391 4081 ft 188 kts 307°
2026-04-11 12:53 45.63133 9.28847 4081 ft 187 kts 302°
2026-04-11 12:53 45.62669 9.28105 2478 ft 215 kts 162°
2026-04-11 12:53 45.61281 9.27703 1195 ft 208 kts 175°
2026-04-11 12:53 45.61230 9.28973 1338 ft 187 kts
2026-04-11 12:54 45.62449 9.29038 1653 ft 171 kts
2026-04-11 12:54 45.63607 9.29318 1786 ft 167 kts 15°
2026-04-11 12:54 45.64705 9.29893 1966 ft 165 kts 27°
2026-04-11 12:54 45.65625 9.30667 2470 ft 146 kts 27°
2026-04-11 12:55 45.66572 9.30824 2947 ft 132 kts 359°
2026-04-11 12:55 45.67464 9.30859 3431 ft 128 kts
2026-04-11 12:55 45.68321 9.30910 3921 ft 121 kts
2026-04-11 12:55 45.69224 9.30942 4075 ft 145 kts
2026-04-11 12:56 45.70305 9.31007 4079 ft 166 kts
2026-04-11 12:56 45.71498 9.31067 4085 ft 175 kts
2026-04-11 12:56 45.72741 9.31112 4090 ft 182 kts 356°
2026-04-11 12:56 45.73984 9.30670 4074 ft 187 kts 334°
2026-04-11 12:57 45.75074 9.29674 4075 ft 186 kts 325°
2026-04-11 12:57 45.76134 9.28593 4057 ft 188 kts 318°
2026-04-11 12:57 45.76954 9.27144 4069 ft 187 kts 303°
2026-04-11 12:57 45.77681 9.25595 4062 ft 187 kts 302°
2026-04-11 12:58 45.78288 9.23943 4053 ft 188 kts 294°
2026-04-11 12:58 45.78815 9.22288 4197 ft 179 kts 293°
2026-04-11 12:58 45.79314 9.20714 4448 ft 169 kts 293°
2026-04-11 12:58 45.79801 9.19165 4531 ft 174 kts 294°
2026-04-11 12:59 45.80310 9.17542 4530 ft 181 kts 293°
2026-04-11 12:59 45.80830 9.15888 4533 ft 182 kts 293°
2026-04-11 12:59 45.81350 9.14237 4531 ft 182 kts 293°
2026-04-11 12:59 45.81874 9.12574 4545 ft 183 kts 293°
2026-04-11 13:00 45.82406 9.10893 4544 ft 187 kts 294°
2026-04-11 13:00 45.82877 9.09154 4522 ft 186 kts 288°
2026-04-11 13:00 45.83299 9.07410 4523 ft 184 kts 288°
2026-04-11 13:00 45.83721 9.05664 4530 ft 186 kts 288°
2026-04-11 13:01 45.84154 9.03912 4528 ft 186 kts 288°
2026-04-11 13:01 45.85106 9.00491 4592 ft 180 kts 302°
2026-04-11 13:01 45.86005 8.99182 4324 ft 190 kts 324°
2026-04-11 13:02 45.87118 8.98130 4050 ft 194 kts 327°
2026-04-11 13:02 45.88338 8.97343 3649 ft 193 kts 349°
2026-04-11 13:02 45.89596 8.97492 3392 ft 184 kts 11°
2026-04-11 13:02 45.90884 8.97773 2851 ft 190 kts
2026-04-11 13:03 45.92179 8.97475 2534 ft 177 kts 343°
2026-04-11 13:03 45.93284 8.96854 2499 ft 164 kts 324°
2026-04-11 13:03 45.94115 8.95762 2570 ft 164 kts 307°
2026-04-11 13:03 45.94786 8.94438 2691 ft 163 kts 301°
2026-04-11 13:04 45.95354 8.92994 2722 ft 169 kts 295°
2026-04-11 13:04 45.95751 8.91327 2510 ft 183 kts 283°
2026-04-11 13:04 45.96134 8.89650 2120 ft 159 kts 311°
2026-04-11 13:04 45.96937 8.89399 1863 ft 116 kts 15°
2026-04-11 13:05 45.97709 8.89675 1566 ft 110 kts 12°
2026-04-11 13:05 45.98388 8.90022 1331 ft 102 kts 20°
2026-04-11 13:05 45.99058 8.90349 1185 ft 101 kts 19°
2026-04-11 13:05 45.99729 8.90706 1012 ft 99 kts 23°
2026-04-11 13:06 46.00279 8.90962 923 ft 58 kts 69°
2026-04-11 13:06 46.00319 8.91029 919 ft 7 kts 12°
2026-04-11 13:06 46.00448 8.91030 920 ft 25 kts 295°
2026-04-11 13:06 46.00340 8.90907 923 ft 22 kts 213°
2026-04-11 13:07 46.00270 8.90776 919 ft 18 kts 197°
2026-04-11 13:07 46.00240 8.90761 921 ft 0 kts 197°